PBO Station Position Time Series. Reference Frame : NAM14
Format Version,1.1.0
4-character ID,P099
Station name,FairviewPkNV2006
Begin Date, 2006-11-10
End Date, 2019-10-07
Release Date, 2019-10-08
Reference position, 39.2123202557 North Latitude, -118.1593514549 East Longitude, 2455.66940 meters elevation,
Date, North (mm), East (mm), Vertical (mm), North Std. Deviation (mm), East Std. Deviation (mm),              Vertical Std. Deviation (mm), Quality,
2006-11-10,0.00, 0.00, 0.00, 2.13, 1.70, 7.67, repro,
2006-11-11,-0.17, 1.08, -2.62, 2.14, 1.73, 7.78, repro,
2006-11-12,-1.21, 0.05, -2.83, 2.17, 1.76, 7.83, repro,
2006-11-13,0.65, -0.29, 2.83, 2.12, 1.71, 7.63, repro,
2006-11-14,0.04, -2.81, 4.28, 2.06, 1.67, 7.49, repro,
2006-11-15,0.27, 0.40, 0.94, 2.02, 1.62, 7.27, repro,
2006-11-16,0.59, 0.83, 2.09, 2.00, 1.61, 7.20, repro,
2006-11-17,0.31, -0.39, 0.11, 2.00, 1.62, 7.18, repro,
2006-11-18,0.29, 0.35, -3.43, 2.00, 1.62, 7.21, repro,
2006-11-19,1.06, -0.85, -5.54, 1.99, 1.62, 7.22, repro,
2006-11-20,0.25, 1.49, -6.27, 2.00, 1.62, 7.21, repro,
2006-11-21,1.14, -0.14, 4.86, 2.01, 1.62, 7.22, repro,
2006-11-22,1.13, 0.49, 2.36, 1.99, 1.62, 7.20, repro,
2006-11-23,1.23, 1.17, -1.16, 2.02, 1.66, 7.39, repro,
2006-11-24,1.02, -0.52, -3.26, 2.08, 1.69, 7.56, repro,
2006-11-25,0.45, 0.17, 0.34, 2.17, 1.71, 7.60, repro,
2006-11-26,0.85, 0.53, -0.42, 2.16, 1.70, 7.54, repro,
2006-11-27,1.74, 1.01, -0.06, 2.05, 1.65, 7.32, repro,
2006-11-28,-0.33, -0.40, 1.22, 2.00, 1.63, 7.22, repro,
2006-11-29,0.86, 0.48, -5.28, 1.99, 1.63, 7.22, repro,
2006-11-30,0.43, 0.18, -8.10, 2.00, 1.63, 7.25, repro,
2006-12-01,-0.19, 0.74, -8.05, 1.99, 1.63, 7.20, repro,
2006-12-02,0.11, -0.18, -9.61, 2.05, 1.64, 7.32, repro,
2006-12-03,-0.14, -0.10, -8.14, 2.04, 1.65, 7.36, repro,
2006-12-04,0.24, -0.13, -13.70, 2.09, 1.67, 7.41, repro,
2006-12-05,-0.00, -0.12, -7.58, 2.08, 1.77, 7.63, repro,
2006-12-06,1.25, -0.51, -6.65, 2.16, 1.81, 8.01, repro,
2006-12-07,0.68, 0.04, -4.62, 2.06, 1.71, 7.44, repro,
2006-12-08,0.16, -0.62, -6.30, 2.02, 1.69, 7.35, repro,
2006-12-09,0.93, 0.34, -4.08, 2.17, 1.82, 7.89, repro,
2006-12-10,-0.14, 1.21, 1.46, 2.19, 1.82, 7.75, repro,
2006-12-11,-0.62, -0.91, -4.11, 2.06, 1.67, 7.43, repro,
2006-12-12,0.33, 0.40, -7.26, 2.19, 1.78, 7.88, repro,
2006-12-13,0.05, 1.34, -4.46, 2.01, 1.70, 7.40, repro,
2006-12-14,1.20, -0.25, -3.00, 2.02, 1.69, 7.37, repro,
2006-12-15,1.58, 0.52, -0.32, 2.10, 1.74, 7.67, repro,
2006-12-16,0.60, -0.95, 0.90, 2.19, 1.82, 7.78, repro,
2006-12-17,1.51, -0.17, -6.12, 2.35, 2.01, 8.71, repro,
2006-12-18,0.55, -0.00, -9.50, 2.32, 1.95, 8.71, repro,
2006-12-19,1.34, 0.12, -8.94, 2.22, 2.05, 8.73, repro,
2006-12-20,0.26, -0.45, -7.88, 2.25, 2.00, 8.43, repro,
2006-12-21,0.26, 0.76, -8.90, 2.02, 1.76, 7.54, repro,
2006-12-22,-0.88, -0.24, -4.23, 2.46, 2.13, 9.23, repro,
2006-12-23,-0.06, 0.63, -10.76, 2.25, 1.93, 8.37, repro,
2006-12-24,0.52, 0.58, -8.37, 2.07, 1.73, 7.52, repro,
2006-12-25,0.01, 1.58, -13.60, 2.05, 1.77, 7.53, repro,
2006-12-26,0.84, 0.04, -6.56, 2.17, 1.83, 8.14, repro,
2006-12-27,0.08, 0.28, 4.15, 2.32, 2.07, 9.08, repro,
2006-12-28,0.00, 0.27, -8.16, 2.49, 2.18, 9.69, repro,
2006-12-29,0.57, -0.38, -9.64, 2.34, 2.05, 8.75, repro,
2006-12-30,0.53, 0.30, -6.63, 2.21, 1.90, 8.29, repro,
2006-12-31,0.11, 0.44, -5.79, 2.41, 2.05, 9.08, repro,
2007-01-01,0.05, -0.20, -7.62, 2.33, 2.01, 8.81, repro,
2007-01-02,0.50, -0.39, -5.82, 2.33, 2.02, 8.81, repro,
2007-01-03,1.45, 0.58, -0.45, 2.05, 1.80, 7.65, repro,
2007-01-04,-0.28, -0.16, 8.88, 2.00, 1.73, 7.46, repro,
2007-01-05,0.88, 0.19, -4.77, 2.08, 1.80, 7.74, repro,
2007-01-06,0.03, 0.26, -8.56, 2.07, 1.79, 7.67, repro,
2007-01-07,1.33, 0.38, -13.20, 2.09, 1.72, 7.59, repro,
2007-01-08,1.11, -0.43, -12.98, 2.06, 1.71, 7.46, repro,
2007-01-09,0.44, -0.25, -11.18, 2.03, 1.67, 7.23, repro,
2007-01-10,-0.74, 1.18, -3.18, 2.06, 1.70, 7.35, repro,
2007-01-11,0.61, 0.11, -2.28, 2.15, 1.69, 7.63, repro,
2007-01-12,0.68, -0.31, -8.13, 2.00, 1.62, 7.16, repro,
2007-01-13,0.55, -0.00, -12.34, 1.96, 1.59, 7.01, repro,
2007-01-14,0.77, -0.22, -12.43, 1.96, 1.60, 6.98, repro,
2007-01-15,0.46, -0.03, -15.81, 1.96, 1.61, 7.02, repro,
2007-01-16,1.01, 0.39, -14.08, 1.99, 1.62, 7.10, repro,
2007-01-17,0.66, -0.07, -10.45, 1.99, 1.65, 7.16, repro,
2007-01-18,1.01, 0.08, -19.81, 2.08, 1.75, 7.69, repro,
2007-01-19,1.17, 0.62, -10.03, 2.04, 1.63, 7.34, repro,
2007-01-20,0.32, 0.13, -12.28, 2.02, 1.63, 7.31, repro,
2007-01-21,0.80, -0.05, -8.52, 1.97, 1.60, 7.04, repro,
2007-01-22,0.52, 0.39, -11.52, 1.98, 1.65, 7.16, repro,
2007-01-23,0.53, -0.05, -12.22, 1.98, 1.61, 7.09, repro,
2007-01-24,0.23, 0.02, -14.15, 1.97, 1.60, 7.05, repro,
2007-01-25,0.69, 0.16, -12.90, 2.04, 1.65, 7.19, repro,
2007-01-26,0.58, 0.20, -11.64, 1.96, 1.60, 6.96, repro,
2007-01-27,0.02, 0.66, -8.44, 1.94, 1.60, 6.95, repro,
2007-01-28,0.62, 0.08, -12.88, 1.95, 1.60, 6.96, repro,
2007-01-29,0.17, -0.06, -11.92, 1.95, 1.58, 6.91, repro,
2007-01-30,0.10, 0.35, -7.06, 1.95, 1.59, 6.95, repro,
2007-01-31,-0.22, 0.37, -4.31, 1.97, 1.61, 7.06, repro,
2007-02-01,-0.36, 1.62, -6.83, 1.98, 1.64, 7.15, repro,
2007-02-02,-0.39, 1.15, -7.31, 1.99, 1.62, 7.13, repro,
2007-02-03,-0.08, 0.67, -10.58, 2.00, 1.61, 7.14, repro,
2007-02-04,0.67, 0.14, -12.08, 1.95, 1.59, 6.93, repro,
2007-02-05,-0.32, 0.92, -13.38, 1.96, 1.60, 6.98, repro,
2007-02-06,-0.82, 0.10, -10.65, 2.00, 1.61, 7.05, repro,
2007-02-07,-0.82, -0.84, -9.59, 1.95, 1.60, 6.99, repro,
2007-02-08,-0.51, 0.71, -12.74, 2.04, 1.67, 7.37, repro,
2007-02-09,-0.28, 0.72, -9.08, 1.98, 1.66, 7.16, repro,
2007-02-10,0.73, 0.87, -8.42, 1.95, 1.59, 6.94, repro,
2007-02-11,0.85, 0.74, -4.19, 1.96, 1.60, 6.96, repro,
2007-02-12,0.04, 0.36, -8.58, 1.96, 1.60, 7.00, repro,
2007-02-13,0.36, 0.72, -11.02, 1.97, 1.60, 7.04, repro,
2007-02-14,-0.23, 0.75, -11.64, 1.96, 1.60, 6.98, repro,
2007-02-15,-0.66, 1.66, -11.99, 1.94, 1.59, 6.91, repro,
2007-02-16,-0.99, 0.88, -10.66, 1.95, 1.59, 6.95, repro,
2007-02-17,-0.06, 1.02, -12.19, 1.99, 1.64, 7.10, repro,
2007-02-18,-1.11, 0.92, -3.42, 1.97, 1.59, 7.03, repro,
2007-02-19,-0.67, 0.00, 1.43, 1.97, 1.61, 7.08, repro,
2007-02-20,-0.65, 0.34, 2.07, 1.95, 1.59, 6.96, repro,
2007-02-21,0.12, 1.07, 4.94, 1.95, 1.58, 6.93, repro,
2007-02-22,2.48, 1.39, -3.07, 1.95, 1.59, 6.97, repro,
2007-02-23,0.35, 0.25, -2.21, 2.23, 1.74, 7.69, repro,
2007-02-24,-0.72, 0.25, -2.62, 1.98, 1.60, 7.09, repro,
2007-02-25,0.88, 0.44, 2.18, 1.97, 1.60, 7.04, repro,
2007-02-26,0.95, 0.48, 2.86, 2.00, 1.62, 7.12, repro,
2007-02-27,-0.44, 1.15, 3.54, 1.96, 1.58, 6.97, repro,
2007-02-28,-0.70, 0.15, 1.49, 1.96, 1.60, 7.01, repro,
2007-03-01,-0.56, 0.81, -3.76, 2.05, 1.67, 7.35, repro,
2007-03-02,-0.30, 0.81, -7.78, 2.03, 1.68, 7.37, repro,
2007-03-03,0.39, 0.99, -10.92, 2.00, 1.63, 7.17, repro,
2007-03-04,0.85, 0.50, -11.19, 1.99, 1.63, 7.14, repro,
2007-03-05,0.60, 0.71, -9.10, 2.00, 1.63, 7.18, repro,
2007-03-06,0.01, -0.10, -7.74, 1.99, 1.63, 7.14, repro,
2007-03-07,-0.34, -0.29, -2.11, 2.01, 1.64, 7.22, repro,
2007-03-08,0.58, 0.46, -5.66, 2.01, 1.63, 7.17, repro,
2007-03-09,-0.50, -0.20, -2.37, 2.00, 1.62, 7.14, repro,
2007-03-10,0.36, 1.48, -6.87, 2.05, 1.66, 7.36, repro,
2007-03-11,0.04, -0.18, -9.71, 2.00, 1.63, 7.18, repro,
2007-03-12,0.04, -0.45, -9.12, 2.03, 1.67, 7.42, repro,
2007-03-13,0.25, -0.23, -2.67, 1.98, 1.60, 7.08, repro,
2007-03-14,-0.10, 1.08, -3.68, 1.97, 1.58, 6.96, repro,
2007-03-15,0.34, 0.78, -6.74, 2.03, 1.65, 7.25, repro,
2007-03-16,-0.01, -0.21, -9.54, 1.99, 1.61, 7.08, repro,
2007-03-17,0.44, -0.15, -2.65, 1.97, 1.59, 7.00, repro,
2007-03-18,-0.31, -0.65, 3.81, 1.97, 1.59, 7.00, repro,
2007-03-19,-0.38, 0.02, -1.83, 1.99, 1.58, 7.01, repro,
2007-03-20,-0.12, 0.64, 5.22, 2.05, 1.60, 7.11, repro,
2007-03-21,-1.09, -0.72, 2.29, 2.07, 1.64, 7.26, repro,
2007-03-22,0.73, -0.37, 0.74, 2.00, 1.63, 7.24, repro,
2007-03-23,0.49, -0.70, -2.18, 2.00, 1.62, 7.19, repro,
2007-03-24,0.01, -0.86, 1.22, 2.00, 1.62, 7.20, repro,
2007-03-25,-0.62, 0.12, 4.45, 1.99, 1.58, 7.01, repro,
2007-03-26,-0.75, 0.39, 2.33, 1.98, 1.58, 7.01, repro,
2007-03-27,-0.77, -0.19, 0.26, 2.02, 1.59, 7.08, repro,
2007-03-28,-0.64, -0.36, -1.13, 2.13, 1.65, 7.54, repro,
2007-03-29,-0.28, 0.12, -5.45, 2.01, 1.62, 7.19, repro,
2007-03-30,-0.02, 0.70, -8.06, 2.01, 1.61, 7.18, repro,
2007-03-31,0.98, 0.33, -2.66, 1.98, 1.58, 6.99, repro,
2007-04-01,-0.25, 0.68, -0.30, 1.98, 1.58, 7.00, repro,
2007-04-02,-0.58, 1.04, -2.98, 1.97, 1.59, 7.01, repro,
2007-04-03,0.30, 0.16, -6.53, 2.03, 1.66, 7.38, repro,
2007-04-04,0.36, -0.16, -7.67, 2.01, 1.61, 7.14, repro,
2007-04-05,-0.60, 0.56, -5.53, 2.04, 1.66, 7.30, repro,
2007-04-06,0.22, 0.42, -7.33, 2.10, 1.71, 7.51, repro,
2007-04-07,-0.10, 1.04, -1.20, 2.05, 1.66, 7.36, repro,
2007-04-08,-1.46, 1.80, -2.14, 1.98, 1.59, 7.02, repro,
2007-04-09,0.88, 2.01, 1.50, 1.98, 1.58, 7.01, repro,
2007-04-10,1.06, -0.04, 5.07, 2.02, 1.62, 7.14, repro,
2007-04-11,-0.24, 0.17, 2.56, 1.98, 1.57, 6.97, repro,
2007-04-12,-0.10, 1.30, -0.32, 2.00, 1.59, 7.05, repro,
2007-04-13,-0.10, -0.04, -5.13, 2.05, 1.67, 7.39, repro,
2007-04-14,1.67, 0.54, 0.36, 2.00, 1.60, 7.04, repro,
2007-04-15,0.25, -0.14, -1.18, 1.99, 1.58, 7.03, repro,
2007-04-16,-0.20, 0.86, -4.40, 1.97, 1.57, 6.94, repro,
2007-04-17,-0.25, -0.03, -1.56, 2.03, 1.65, 7.22, repro,
2007-04-18,-0.17, 1.19, 0.91, 2.00, 1.59, 7.09, repro,
2007-04-19,0.95, 0.09, -1.05, 2.00, 1.61, 7.12, repro,
2007-04-20,1.22, -0.34, -0.87, 1.99, 1.58, 7.06, repro,
2007-04-21,0.50, 0.05, 1.82, 1.99, 1.57, 7.00, repro,
2007-04-22,0.79, 0.89, 2.30, 1.99, 1.58, 7.03, repro,
2007-04-23,-0.27, 0.35, -2.79, 2.04, 1.63, 7.22, repro,
2007-04-24,0.25, 0.54, -7.17, 2.03, 1.62, 7.19, repro,
2007-04-25,1.20, -0.04, -1.00, 2.02, 1.61, 7.12, repro,
2007-04-26,0.66, 0.04, -4.42, 2.00, 1.57, 7.02, repro,
2007-04-27,0.39, 0.49, -4.09, 1.98, 1.57, 6.98, repro,
2007-04-28,1.04, -0.15, -6.13, 1.99, 1.58, 7.05, repro,
2007-04-29,0.74, 0.28, -3.97, 1.99, 1.57, 7.01, repro,
2007-04-30,0.68, 0.51, -0.98, 2.00, 1.58, 7.06, repro,
2007-05-01,0.46, -0.12, -3.03, 2.00, 1.56, 7.00, repro,
2007-05-02,-0.79, 0.01, -1.60, 2.06, 1.58, 7.22, repro,
2007-05-03,0.65, 0.39, -0.44, 2.13, 1.63, 7.45, repro,
2007-05-04,0.98, 0.71, -2.39, 2.00, 1.57, 7.06, repro,
2007-05-05,2.64, 0.13, -6.47, 2.03, 1.61, 7.14, repro,
2007-05-06,1.28, 0.75, -7.98, 2.06, 1.60, 7.17, repro,
2007-05-07,0.49, 0.31, -5.24, 2.00, 1.55, 6.98, repro,
2007-05-08,1.30, -0.75, -2.89, 2.00, 1.56, 7.02, repro,
2007-05-09,1.18, 0.21, -4.04, 2.01, 1.57, 7.10, repro,
2007-05-10,1.85, 1.43, -6.53, 2.15, 1.67, 7.58, repro,
2007-05-11,1.35, 0.60, -5.71, 2.10, 1.64, 7.44, repro,
2007-05-12,0.61, 1.21, -2.61, 2.03, 1.57, 7.09, repro,
2007-05-13,1.20, 0.76, -1.90, 2.09, 1.65, 7.31, repro,
2007-05-14,0.86, 0.12, -5.51, 2.04, 1.60, 7.15, repro,
2007-05-15,1.22, 0.52, -5.36, 2.01, 1.57, 7.03, repro,
2007-05-16,1.36, 0.25, -7.14, 2.01, 1.58, 7.07, repro,
2007-05-17,0.32, 0.39, -2.73, 2.04, 1.62, 7.18, repro,
2007-05-18,1.35, -0.22, 0.68, 2.11, 1.68, 7.39, repro,
2007-05-19,0.92, -0.00, -2.44, 2.07, 1.61, 7.18, repro,
2007-05-20,1.58, 1.27, -2.07, 2.07, 1.63, 7.20, repro,
2007-05-21,0.36, 1.16, 2.09, 2.03, 1.60, 7.09, repro,
2007-05-22,0.95, 0.08, -2.18, 2.04, 1.62, 7.14, repro,
2007-05-23,1.37, -0.31, -2.30, 2.09, 1.64, 7.25, repro,
2007-05-24,0.88, -0.35, -2.29, 2.23, 1.77, 7.79, repro,
2007-05-25,-0.32, 0.28, -3.42, 2.05, 1.61, 7.17, repro,
2007-05-26,0.68, 1.19, -2.84, 2.05, 1.61, 7.13, repro,
2007-05-27,0.79, 0.68, -1.45, 2.01, 1.59, 7.03, repro,
2007-05-28,0.22, -0.12, 2.69, 2.06, 1.60, 7.11, repro,
2007-05-29,1.18, 0.18, -3.15, 2.06, 1.60, 7.10, repro,
2007-05-30,1.03, 0.27, -4.38, 2.08, 1.59, 7.14, repro,
2007-05-31,0.46, 0.09, -2.06, 2.10, 1.64, 7.26, repro,
2007-06-01,0.32, 0.07, -0.16, 2.02, 1.58, 6.99, repro,
2007-06-02,0.91, -0.11, -0.89, 2.00, 1.58, 7.03, repro,
2007-06-03,0.88, 0.04, -6.00, 2.02, 1.58, 7.04, repro,
2007-06-04,0.72, 0.24, -0.33, 2.00, 1.57, 7.00, repro,
2007-06-05,0.52, -0.65, 0.01, 2.06, 1.60, 7.21, repro,
2007-06-06,0.23, 0.56, 5.34, 2.01, 1.57, 7.02, repro,
2007-06-07,0.55, -0.39, 0.62, 2.01, 1.57, 7.01, repro,
2007-06-08,0.56, -1.44, 0.90, 2.01, 1.57, 6.99, repro,
2007-06-09,0.51, 0.19, -3.22, 2.02, 1.61, 7.11, repro,
2007-06-10,0.04, -0.33, 0.14, 2.01, 1.59, 7.08, repro,
2007-06-11,-0.01, 1.52, 0.05, 2.05, 1.68, 7.31, repro,
2007-06-12,1.34, 1.07, -3.20, 2.04, 1.67, 7.22, repro,
2007-06-13,1.53, 0.32, -7.06, 2.05, 1.63, 7.16, repro,
2007-06-14,0.37, 1.29, -10.52, 2.04, 1.63, 7.15, repro,
2007-06-15,0.70, 0.18, -2.89, 2.00, 1.58, 7.04, repro,
2007-06-16,0.16, 0.55, -1.67, 2.01, 1.58, 7.04, repro,
2007-06-17,0.74, 1.52, -5.07, 2.00, 1.57, 7.00, repro,
2007-06-18,1.24, 1.07, 0.82, 1.99, 1.58, 7.02, repro,
2007-06-19,0.48, 1.37, -5.88, 2.00, 1.58, 7.03, repro,
2007-06-20,0.32, 0.83, -7.19, 2.00, 1.58, 7.01, repro,
2007-06-21,0.43, 0.70, -5.68, 1.99, 1.58, 6.99, repro,
2007-06-22,0.65, 1.20, -4.90, 2.00, 1.58, 7.02, repro,
2007-06-23,0.72, 1.19, -5.25, 1.99, 1.57, 7.01, repro,
2007-06-24,0.40, 1.23, -6.98, 2.03, 1.63, 7.30, repro,
2007-06-25,0.68, 0.79, -7.73, 2.00, 1.58, 7.03, repro,
2007-06-26,0.58, 0.85, -10.17, 2.00, 1.56, 6.98, repro,
2007-06-27,0.92, 1.18, -8.83, 2.01, 1.57, 7.04, repro,
2007-06-28,0.33, 1.49, -6.19, 2.01, 1.57, 7.06, repro,
2007-06-29,0.13, 1.39, -3.87, 2.00, 1.57, 7.05, repro,
2007-06-30,-0.68, 1.01, -2.03, 2.01, 1.58, 7.11, repro,
2007-07-01,0.45, 0.81, -1.37, 2.00, 1.57, 7.02, repro,
2007-07-02,0.20, 2.26, -4.06, 2.00, 1.57, 7.04, repro,
2007-07-03,0.47, 2.14, -6.87, 2.01, 1.58, 7.10, repro,
2007-07-04,0.93, 1.75, -6.42, 1.99, 1.58, 7.04, repro,
2007-07-05,0.73, 1.30, -7.80, 2.01, 1.59, 7.09, repro,
2007-07-06,0.89, 1.19, -6.70, 2.01, 1.59, 7.09, repro,
2007-07-07,0.02, 0.60, -4.14, 2.00, 1.58, 7.06, repro,
2007-07-08,-0.33, 0.82, -1.15, 2.00, 1.58, 7.04, repro,
2007-07-09,0.43, 1.24, -2.92, 2.00, 1.58, 7.05, repro,
2007-07-10,-0.44, 0.95, -2.08, 1.99, 1.57, 6.97, repro,
2007-07-11,1.29, 1.07, -8.41, 2.06, 1.67, 7.29, repro,
2007-07-12,0.04, 1.86, -2.79, 2.04, 1.64, 7.23, repro,
2007-07-13,0.06, 1.16, 0.37, 2.04, 1.65, 7.28, repro,
2007-07-14,0.21, 1.86, -2.66, 2.08, 1.69, 7.44, repro,
2007-07-15,0.46, 1.04, -2.94, 2.03, 1.63, 7.17, repro,
2007-07-16,0.81, 0.19, -1.62, 2.07, 1.68, 7.49, repro,
2007-07-17,-1.34, 2.15, -0.43, 2.08, 1.60, 7.31, repro,
2007-07-18,0.24, 2.80, -3.54, 2.04, 1.65, 7.27, repro,
2007-07-19,-0.18, 2.23, -1.67, 2.04, 1.64, 7.37, repro,
2007-07-20,0.72, 0.88, 0.55, 2.09, 1.65, 7.34, repro,
2007-07-21,-0.26, 1.95, 1.88, 2.06, 1.65, 7.30, repro,
2007-07-22,-0.14, 2.28, -3.51, 2.09, 1.66, 7.41, repro,
2007-07-23,0.96, 0.68, -2.08, 2.04, 1.64, 7.22, repro,
2007-07-24,1.16, 1.62, 0.08, 2.06, 1.66, 7.37, repro,
2007-07-25,-0.81, 0.42, 5.73, 2.09, 1.71, 7.44, repro,
2007-07-26,2.81, 1.31, -1.80, 2.06, 1.67, 7.53, repro,
2007-07-27,1.12, 0.71, 0.90, 2.05, 1.65, 7.29, repro,
2007-07-28,-0.34, 0.79, -3.82, 2.04, 1.64, 7.24, repro,
2007-07-29,0.98, 1.13, -0.17, 2.05, 1.66, 7.28, repro,
2007-07-30,0.86, 0.43, -5.05, 2.05, 1.67, 7.36, repro,
2007-07-31,0.88, -0.66, 2.31, 2.04, 1.65, 7.25, repro,
2007-08-01,0.58, 0.40, 2.63, 2.01, 1.59, 7.12, repro,
2007-08-02,2.37, 0.67, 2.32, 2.01, 1.58, 7.02, repro,
2007-08-03,1.53, 1.68, -1.31, 2.01, 1.58, 7.02, repro,
2007-08-04,1.12, -0.13, 2.63, 2.05, 1.65, 7.21, repro,
2007-08-05,0.16, 1.76, 3.18, 2.05, 1.60, 7.18, repro,
2007-08-06,1.01, 1.37, 7.31, 2.02, 1.63, 7.25, repro,
2007-08-07,0.14, 2.20, 4.81, 2.02, 1.62, 7.22, repro,
2007-08-08,0.47, 1.25, 2.43, 2.00, 1.57, 6.99, repro,
2007-08-09,1.90, 0.88, 4.45, 2.00, 1.58, 7.02, repro,
2007-08-10,-0.45, 0.58, 6.74, 2.00, 1.58, 7.04, repro,
2007-08-11,0.98, 1.36, 4.37, 2.00, 1.58, 7.05, repro,
2007-08-12,-0.05, 2.19, 4.00, 1.98, 1.58, 7.03, repro,
2007-08-13,0.65, 1.28, -2.27, 1.99, 1.57, 6.96, repro,
2007-08-14,-0.05, 2.24, -0.31, 2.12, 1.68, 7.40, repro,
2007-08-15,-0.38, 1.84, -1.24, 2.13, 1.70, 7.48, repro,
2007-08-16,-0.69, 1.27, 5.25, 2.13, 1.70, 7.63, repro,
2007-08-17,1.55, 0.94, -0.48, 2.10, 1.64, 7.42, repro,
2007-08-18,-0.26, 1.89, -0.01, 2.11, 1.67, 7.57, repro,
2007-08-19,1.49, 1.72, 1.57, 2.11, 1.67, 7.58, repro,
2007-08-20,-0.11, 0.06, -0.26, 2.08, 1.63, 7.30, repro,
2007-08-21,-0.06, 0.53, 3.25, 2.09, 1.64, 7.35, repro,
2007-08-22,1.46, 2.08, -3.12, 2.10, 1.63, 7.37, repro,
2007-08-23,1.29, 1.13, 2.38, 2.05, 1.60, 7.17, repro,
2007-08-24,0.93, 1.85, 1.50, 2.15, 1.67, 7.48, repro,
2007-08-25,0.80, 0.99, -1.45, 2.09, 1.65, 7.30, repro,
2007-08-26,0.17, 2.25, 5.64, 2.22, 1.74, 7.89, repro,
2007-08-27,1.12, 1.83, 0.91, 2.14, 1.71, 7.59, repro,
2007-08-28,-0.66, 1.81, -1.41, 2.23, 1.72, 7.81, repro,
2007-08-29,0.87, 2.41, -5.26, 2.09, 1.66, 7.36, repro,
2007-08-30,-0.68, 0.84, -0.84, 2.10, 1.67, 7.40, repro,
2007-08-31,0.14, 0.48, 1.04, 2.11, 1.67, 7.42, repro,
2007-09-01,1.04, 1.75, 2.48, 2.11, 1.67, 7.42, repro,
2007-09-02,1.13, 0.46, 1.51, 2.10, 1.66, 7.42, repro,
2007-09-03,1.10, 0.32, -0.21, 2.11, 1.67, 7.42, repro,
2007-09-04,1.55, 1.08, 1.88, 2.09, 1.66, 7.34, repro,
2007-09-05,0.12, 0.09, -0.32, 2.12, 1.71, 7.50, repro,
2007-09-06,0.55, 1.01, 3.73, 2.12, 1.68, 7.46, repro,
2007-09-07,1.17, 0.24, 2.69, 2.10, 1.66, 7.41, repro,
2007-09-08,0.77, 0.64, 0.50, 2.23, 1.81, 7.94, repro,
2007-09-09,0.76, -0.08, -1.83, 2.18, 1.76, 7.77, repro,
2007-09-10,1.28, 0.39, -0.18, 2.13, 1.71, 7.55, repro,
2007-09-11,0.79, 0.80, -1.89, 2.15, 1.72, 7.63, repro,
2007-09-12,1.97, -0.44, 1.43, 2.16, 1.71, 7.61, repro,
2007-09-13,0.89, 0.32, 2.64, 2.33, 1.72, 7.95, repro,
2007-09-14,0.89, 0.06, -2.12, 2.22, 1.75, 7.80, repro,
2007-09-15,0.96, -0.41, 5.92, 2.30, 1.70, 7.94, repro,
2007-09-16,0.62, 0.05, 1.05, 2.20, 1.67, 7.54, repro,
2007-09-17,-0.06, 0.21, 5.13, 2.29, 1.81, 8.08, repro,
2007-09-18,0.71, 1.10, -1.18, 2.15, 1.74, 7.68, repro,
2007-09-19,1.07, 0.78, 5.41, 2.05, 1.62, 7.27, repro,
2007-09-20,-0.14, 0.06, 2.75, 2.08, 1.65, 7.35, repro,
2007-09-21,0.50, -0.20, 5.62, 2.20, 1.72, 7.80, repro,
2007-09-22,1.36, -2.94, 3.94, 2.07, 1.60, 7.21, repro,
2007-09-23,0.51, 1.50, 1.26, 2.14, 1.69, 7.52, repro,
2007-09-24,-0.34, 1.65, -0.40, 2.17, 1.66, 7.51, repro,
2007-09-25,-0.75, 1.04, -6.71, 2.14, 1.67, 7.52, repro,
2007-09-26,0.29, 0.66, -0.53, 2.27, 1.74, 7.98, repro,
2007-09-27,-0.32, 0.71, 0.13, 2.20, 1.71, 7.70, repro,
2007-09-28,0.29, 1.21, 0.36, 2.12, 1.73, 7.53, repro,
2007-09-29,0.05, 0.27, 3.23, 2.11, 1.69, 7.48, repro,
2007-09-30,-0.19, 0.10, 5.10, 2.13, 1.73, 7.65, repro,
2007-10-01,1.28, 1.61, 0.76, 2.23, 1.74, 7.91, repro,
2007-10-02,0.26, 1.15, 4.27, 2.23, 1.79, 7.97, repro,
2007-10-03,-0.48, 2.00, 5.58, 2.14, 1.73, 7.68, repro,
2007-10-04,0.58, 2.07, 8.70, 2.23, 1.72, 7.82, repro,
2007-10-05,0.33, -0.21, 5.68, 2.14, 1.74, 7.73, repro,
2007-10-06,-0.50, 0.79, 5.51, 2.16, 1.70, 7.60, repro,
2007-10-07,0.40, 0.61, -0.84, 2.23, 1.79, 7.94, repro,
2007-10-08,-0.83, 0.20, 2.74, 2.32, 1.79, 8.33, repro,
2007-10-09,-1.41, 0.24, 0.69, 2.32, 1.93, 8.44, repro,
2007-10-10,0.25, 2.46, -1.08, 2.30, 1.81, 8.16, repro,
2007-10-11,0.26, 1.45, 1.52, 2.10, 1.69, 7.46, repro,
2007-10-12,-0.04, 0.12, 3.74, 2.16, 1.79, 7.91, repro,
2007-10-13,0.27, 0.55, 5.71, 2.03, 1.63, 7.22, repro,
2007-10-14,-0.21, 0.11, 1.53, 2.07, 1.67, 7.42, repro,
2007-10-15,-1.68, 0.66, 2.83, 2.13, 1.74, 7.67, repro,
2007-10-16,-0.49, 0.77, 7.97, 2.04, 1.63, 7.27, repro,
2007-10-17,-0.42, 1.69, 10.74, 2.03, 1.63, 7.24, repro,
2007-10-18,-0.03, 1.35, 5.10, 2.09, 1.69, 7.50, repro,
2007-10-19,-1.75, 1.68, 7.32, 2.03, 1.62, 7.21, repro,
2007-10-20,0.35, 2.01, 10.10, 2.09, 1.68, 7.50, repro,
2007-10-21,-0.19, 1.24, 0.18, 2.06, 1.64, 7.31, repro,
2007-10-22,-0.61, 0.86, -6.55, 2.08, 1.67, 7.45, repro,
2007-10-23,-0.55, 1.22, -7.20, 2.12, 1.73, 7.61, repro,
2007-10-24,-1.12, 1.64, -4.33, 2.11, 1.72, 7.57, repro,
2007-10-25,-1.03, 1.04, -4.24, 2.08, 1.66, 7.42, repro,
2007-10-26,-0.50, 1.39, -0.98, 2.08, 1.68, 7.44, repro,
2007-10-27,-0.02, 0.57, -5.93, 2.08, 1.67, 7.43, repro,
2007-10-28,-0.45, 1.01, -4.71, 2.03, 1.63, 7.22, repro,
2007-10-29,-1.05, 1.04, -3.95, 2.02, 1.63, 7.21, repro,
2007-10-30,-1.82, 1.70, -5.38, 2.03, 1.63, 7.22, repro,
2007-10-31,-0.70, 0.83, -4.57, 2.06, 1.63, 7.34, repro,
2007-11-01,-0.70, 1.25, -1.40, 2.03, 1.61, 7.15, repro,
2007-11-02,0.17, 0.83, -2.84, 2.00, 1.59, 7.05, repro,
2007-11-03,-0.39, 1.02, -5.90, 1.99, 1.60, 7.06, repro,
2007-11-04,-0.33, 1.12, -3.95, 1.99, 1.59, 7.03, repro,
2007-11-05,-0.48, 0.90, -4.24, 2.02, 1.60, 7.09, repro,
2007-11-06,-0.78, 0.98, -4.50, 2.17, 1.81, 7.89, repro,
2007-11-07,0.31, 0.88, -5.78, 2.00, 1.59, 7.04, repro,
2007-11-08,-1.53, 1.27, -2.73, 2.02, 1.63, 7.17, repro,
2007-11-09,-1.52, -0.29, -4.21, 2.03, 1.63, 7.19, repro,
2007-11-10,-0.65, 0.69, -1.70, 2.01, 1.60, 7.13, repro,
2007-11-11,0.19, 0.16, -1.08, 2.03, 1.60, 7.14, repro,
2007-11-12,-0.04, 0.04, 1.19, 2.02, 1.60, 7.11, repro,
2007-11-13,-0.02, 1.37, 0.44, 1.99, 1.58, 7.03, repro,
2007-11-14,0.60, 1.40, -7.20, 2.02, 1.62, 7.14, repro,
2007-11-15,0.43, 0.78, -3.61, 2.03, 1.62, 7.21, repro,
2007-11-16,-0.05, 0.23, -4.52, 2.05, 1.62, 7.21, repro,
2007-11-17,-0.48, 0.87, -2.62, 2.03, 1.59, 7.12, repro,
2007-11-18,0.16, 1.56, -2.36, 2.02, 1.61, 7.16, repro,
2007-11-19,1.31, 0.57, -1.24, 2.00, 1.59, 7.08, repro,
2007-11-20,1.55, 0.59, -8.39, 2.06, 1.69, 7.29, repro,
2007-11-21,0.47, 0.68, -7.51, 2.15, 1.79, 7.76, repro,
2007-11-22,1.50, 0.17, -9.13, 2.08, 1.66, 7.29, repro,
2007-11-23,1.15, 0.38, -4.25, 2.18, 1.79, 7.84, repro,
2007-11-24,0.83, 0.06, -4.65, 2.10, 1.70, 7.37, repro,
2007-11-25,0.17, 0.46, -2.40, 2.13, 1.76, 7.52, repro,
2007-11-26,1.05, 0.60, -6.85, 2.22, 1.83, 8.00, repro,
2007-11-27,0.86, 0.44, -4.08, 2.17, 1.75, 7.74, repro,
2007-11-28,0.59, 0.08, -10.07, 2.15, 1.72, 7.49, repro,
2007-11-29,0.92, -0.58, -8.69, 2.23, 1.80, 7.70, repro,
2007-11-30,0.69, 0.06, -4.16, 2.19, 1.75, 7.62, repro,
2007-12-01,0.41, 0.07, 1.56, 2.25, 1.82, 8.02, repro,
2007-12-02,0.27, 1.13, -6.27, 2.29, 1.89, 8.33, repro,
2007-12-03,-0.37, 1.60, -12.85, 2.36, 1.97, 8.68, repro,
2007-12-04,0.99, 0.93, -7.26, 2.39, 2.07, 8.66, repro,
2007-12-05,0.78, 0.67, -7.16, 2.37, 2.05, 8.65, repro,
2007-12-06,0.70, 1.12, -2.36, 2.47, 2.15, 9.01, repro,
2007-12-07,1.19, 0.66, 0.38, 2.35, 1.99, 8.56, repro,
2007-12-08,-1.40, 0.79, -1.30, 2.30, 1.87, 8.18, repro,
2007-12-09,-1.76, -0.27, -1.92, 2.47, 2.21, 9.15, repro,
2007-12-10,-2.92, 0.35, -0.82, 2.23, 1.84, 7.94, repro,
2007-12-11,-2.33, -0.52, -3.92, 2.27, 1.83, 7.99, repro,
2007-12-12,-0.23, -0.20, -9.09, 2.22, 1.76, 7.83, repro,
2007-12-13,1.29, 0.70, -10.70, 2.20, 1.78, 7.74, repro,
2007-12-14,0.32, 0.71, -6.87, 2.09, 1.63, 7.37, repro,
2007-12-15,0.86, 1.92, -2.54, 2.13, 1.68, 7.45, repro,
2007-12-16,0.55, 1.06, -4.35, 2.12, 1.68, 7.43, repro,
2007-12-17,1.26, 0.82, -1.01, 2.12, 1.68, 7.38, repro,
2007-12-18,1.38, 1.77, -1.52, 2.11, 1.72, 7.51, repro,
2007-12-19,1.28, 0.57, 0.01, 2.18, 1.76, 7.89, repro,
2007-12-20,0.33, 0.89, 3.37, 2.10, 1.66, 7.42, repro,
2007-12-21,0.38, 2.25, 0.48, 2.36, 2.04, 8.78, repro,
2007-12-22,0.58, 1.40, -4.24, 2.24, 1.88, 8.15, repro,
2007-12-23,-0.88, 2.10, -8.59, 2.22, 1.81, 7.96, repro,
2007-12-24,1.05, 1.12, -2.72, 2.23, 1.85, 7.80, repro,
2007-12-25,0.85, 0.94, -2.70, 2.20, 1.78, 7.72, repro,
2007-12-26,0.70, 1.12, 4.02, 2.10, 1.65, 7.43, repro,
2007-12-27,0.76, 0.49, 4.54, 2.18, 1.74, 7.59, repro,
2007-12-28,0.03, 0.93, -0.70, 2.12, 1.69, 7.48, repro,
2007-12-29,0.35, 0.94, -2.93, 2.15, 1.69, 7.56, repro,
2007-12-30,-0.70, 0.99, 0.01, 2.15, 1.69, 7.55, repro,
2007-12-31,0.30, 1.77, -10.37, 2.07, 1.60, 7.25, repro,
2008-01-01,0.48, 1.55, -14.20, 2.06, 1.59, 7.22, repro,
2008-01-02,-0.27, 0.99, -11.37, 2.06, 1.59, 7.14, repro,
2008-01-03,0.87, 1.32, -1.59, 2.09, 1.63, 7.34, repro,
2008-01-04,2.36, 1.01, 1.98, 2.05, 1.57, 7.14, repro,
2008-01-05,-0.23, 1.08, 12.09, 2.04, 1.58, 7.12, repro,
2008-01-06,-0.60, -0.31, 2.99, 2.08, 1.63, 7.34, repro,
2008-01-07,-0.66, 0.53, 5.78, 2.02, 1.57, 7.09, repro,
2008-01-08,-0.28, 1.08, -0.49, 2.09, 1.59, 7.28, repro,